Regional Weather Roundup
Issued by NWS

Home | Current Version | Previous Version | Text Only | Print | Product List | Glossary Off
Versions: 1 2 3 4 5 6 7 8 9 10 11 12 13 14 15 16 17 18 19 20 21 22 23 24 25 26 27 28 29 30 31 32 33 34 35 36 37 38 39 40 41 42 43 44 45 46 47 48 49 50

000
ASUS45 KBOU 040307
RWRCO

WEATHER ROUNDUP FOR COLORADO
NATIONAL WEATHER SERVICE DENVER/BOULDER CO
900 PM MDT MON AUG 03 2015

NOTE: "FAIR" INDICATES FEW OR NO CLOUDS BELOW 12000 FEET WITH NO
SIGNIFICANT WEATHER AND/OR OBSTRUCTIONS TO VISIBILITY.

COZ001>005-013-030-031-040400-
...NORTHWEST COLORADO...

CITY           SKY/WX    TMP DP  RH WIND       PRES   REMARKS
CRAIG          CLOUDY    63  56  78 NE7       30.14S
HAYDEN         CLOUDY    57  52  82 SE9       30.17S
MEEKER         PTCLDY    62  54  74 E5        30.14S
MOUNT WERNER   NOT AVBL
STEAMBOAT SPGS   N/A     55  52  89 CALM      30.20S
WALDEN         CLOUDY    52  48  87 E12       30.29S
$$

COZ006>008-011-040400-
...WEST CENTRAL VALLEYS...

CITY           SKY/WX    TMP DP  RH WIND       PRES   REMARKS
GRAND JUNCTION MOCLDY    77  48  35 CALM      30.03R
MONTROSE       CLOUDY    74  50  42 SE6       30.14S
EAGLE          MOCLDY    66  52  59 W3        30.20R
RIFLE          MOCLDY    68  55  63 E9        30.09R
DELTA          CLOUDY    81  44  27 NW3       30.08S
NUCLA          NOT AVBL
$$

COZ017>023-064>068-040400-
...SOUTHWEST COLORADO...

CITY           SKY/WX    TMP DP  RH WIND       PRES   REMARKS
DURANGO        PTCLDY    68  40  35 N14       30.21R
CORTEZ         CLEAR     67  45  45 NE8       30.15S
PAGOSA SPRINGS PTCLDY    59  55  86 CALM      30.29R
TELLURIDE      NOT AVBL
WOLF CREEK PAS NOT AVBL
$$

COZ009-010-012-014-032>034-037-058>063-040400-
...CENTRAL COLORADO...

CITY           SKY/WX    TMP DP  RH WIND       PRES   REMARKS
ASPEN          MOCLDY    56  50  80 SW7       30.28R
BUENA VISTA    MOCLDY    62  41  46 W7        30.28R
COPPER MTN     MOCLDY    50  36  57 SW14G23   30.57S
BERTHOUD PASS  FAIR      43  32  65 W8G25     30.60S
COTTONWOOD PAS MOCLDY    59  37  44 NW8G18    30.40R
GUNNISON       MOCLDY    63  46  55 N5        30.31S
KREMMLING      MOCLDY    61  43  51 N6        30.25R
LEADVILLE      MOCLDY    53  40  61 N9        30.41S
MONARCH PASS   PTCLDY    45  39  81 W25       30.65F
SALIDA         MOCLDY    64  49  58 CALM      30.32R
SUNLIGHT       PTCLDY    46  45  93 CALM      30.48S
WILKERSON PASS NOT AVBL
$$

COZ069>075-040400-
...SAN LUIS VALLEY/SANGRE DE CRISTO MOUNTAINS...

CITY           SKY/WX    TMP DP  RH WIND       PRES   REMARKS
ALAMOSA        PTCLDY    59  52  77 SW8       30.25R
LA VETA PASS   MOCLDY    52  46  82 MISG      30.45S
SAGUACHE       PTCLDY    63  45  51 N7        30.28S
$$

COZ035-036-038>040-040400-
...NORTHERN COLORADO FRONT RANGE...

CITY           SKY/WX    TMP DP  RH WIND       PRES   REMARKS
DENVER INTL AP MOCLDY    68  52  56 SE13      30.10R
DMNS CITY PARK   N/A     70  53  53 SE13      30.08S
AURORA         MOCLDY    67  54  62 SE10      30.12R
FRONT RANGE AP MOCLDY    66  52  59 S9G18     30.12R
ERIE MUNI ARPT MOCLDY    74  50  42 SE6       30.07R
BOULDER MUN AP MOCLDY    72  50  46 SE6       30.06S
CENTENNIAL     CLOUDY    67  54  63 S10       30.12R
BROOMFIELD     MOCLDY    72  50  46 SE8       30.11R
FORT COLLINS   MOCLDY    73  52  46 S12       30.05R
LONGMONT       MOCLDY    74  52  45 E6        30.07S
$$

COZ041-046-047-076>085-087-088-040400-
...PIKES PEAK/PALMER DIVIDE AND SOUTHERN FOOTHILLS...

CITY           SKY/WX    TMP DP  RH WIND       PRES   REMARKS
COLO. SPRINGS  TSTM      62  58  86 VRB3      30.23R
A. F. ACADEMY  CLOUDY    61  57  88 VRB5      30.21F
ELLICOTT       MOCLDY   N/A N/A N/A E8        30.18R THUNDER
FALCON         TSTM      61  53  73 W6        30.26R
FORT CARSON    LGT RAIN  63  59  86 NW13      30.18R
LIMON          PTCLDY    58  53  84 CALM      30.12R
MONUMENT HILL  MOCLDY    61  50  67 S9        30.20F
TRINIDAD       MOCLDY    65  61  87 SW3       30.13R
$$

COZ042>045-048>051-090-091-040400-
...NORTHEAST COLORADO...

CITY           SKY/WX    TMP DP  RH WIND       PRES   REMARKS
GREELEY ARPT   PTCLDY    72  50  46 S12       30.06R
AKRON          PTCLDY    68  48  48 S9        30.05F
BURLINGTON     MOCLDY    68  56  65 S6        30.01F
WRAY           CLOUDY    71  52  49 W6        29.99S
STERLING       PTCLDY    72  52  49 SW8       30.01S
HOLYOKE        CLOUDY    73  52  46 SW7       30.01R
FORT MORGAN    PTCLDY    69  47  46 S8G18     30.06S
$$

COZ086-089-092>099-040400-
...SOUTHEAST COLORADO...

CITY           SKY/WX    TMP DP  RH WIND       PRES   REMARKS
PUEBLO         CLOUDY    76  56  49 N5        30.08R
LA JUNTA       PTCLDY    71  56  58 E6        30.02R
LAMAR          PTCLDY    68  63  84 E7        29.98S
SPRINGFIELD      N/A     67  63  87 SW5       30.03R
$$


USA.gov is the U.S. government's official web portal to all federal, state and local government web resources and services.